Kezdőlap
METAR-TAF:

METAR-TAF

Repülőterek :

Iowa County Airport

Mineral Point, Wisconsin, Amerikai Egyesült Államok

földrajzi szélesség: 42-53-07N, földrajzi hosszúság: 090-13-55W, magasság: 359 m

Jelenlegi meteorológiai megfigyelések

A jelentés 24 perccel ezelõtt készült, 01:55 UTC
Dél-délkeleti szél 7 kt
Hőmérséklet 22°C
Páratartalom 73%
Légköri nyomás 1012 hPa
Látótávolság: 16.1 km
Derült ég

METAR: KMRJ 270155Z AUTO 15007KT 10SM CLR 22/17 A2989 RMK AO2

Idő: 21:19 (02:19 UTC)


TAF: hiányzik

Meteorológiai megfigyelések és előrejelzések több, mint 4000 repülőtéren (METAR és TAF jelentéseket).

A térképen piros és sárga pontok jelzik az elérhető meteorológiai állomásokat.

Mozgassa az egeret a pont fölött, hogy megjelenjen az állomás neve.

Azután kattintson az időjárási megfigyelések és előrejelzések megtekintéséhez.

A térkép megváltoztatása: kattintson a fekete keresztel jelölt zöld gombra ráközelítéshez, a vonallal jelölt zöld gombra távolításhoz, vagy a zöld nyilakra a szomszédos térképek eléréséhez.


METAR-TAF: